THOR ABLESTAR DEB, 125

Orbit data source: Space-Track

THOR ABLESTAR DEB, 125 is space debris in LEO originally from a launch on Thu, 29 Jun 1961 UTC launched from the Air Force Eastern Test Range (AFETR). Debris objects in space refer to the collection of defunct objects orbiting the Earth. Examples of debris include non-operational satellites, rocket bodies, and fragments generated from explosions, collisions, or faulty payload assembly.

Loading next visibility...
THOR ABLESTAR DEB details
Identifier
125, 1961-015K
Orbit
LEO
Last TLE update23 hours ago
Origin
Flag of USUSAF SSD (US)
ManufacturerUnknown
MissionSpacecraft
Bus & MotorUnknown
MassUnknown
Launch date (UTC)
1961-06-29 (64 years ago)
Launch vehicleUnknown
Launch site
Air Force Eastern Test Range (AFETR)
Object type
Payload
Rocket body
Debris
Shape & HBRUnknown
Radar Cross SectionSmall (<0.1 m²)

Expand to show TLE details & history

TLE from 23 hours ago
0 THOR ABLESTAR DEB
1 00125U 61015K   25013.47818507  .00000678  00000-0  44268-3 0  9990
2 00125  66.8753 149.8681 0067500  84.7551 276.1234 14.07113785244125
Epoch: 2025-01-13T11:28Z
Definitive object data (Epoch: 2025-01-13T11:28:35.19Z)
Latitude-0.00006°
Longitude-135.47721°
Altitude866.471 km
Speed7.422 km/s
True Right ascension09h 59m 28s
True Declination0° 00' 00"
Sunlit
Object was in full shadow at TLE epoch
Visualization TLE readout
Latitude-56.33274°
Longitude81.71879°
Altitude936.347 km
Speed7.359 km/s
Apparent Right ascension23h 53m 24s
Apparent Declination-48° 47' 21"
Sunlit
Object is in daylight
Visualization observer readout
Local Sidereal Time11:24:31
Azimuth207.714° SW
Elevation-79.746°
Doppler factor1
Orbital elements
Apogee altitude916.546 km
Perigee altitude818.728 km
Semi-major axis7,245.774 km
Eccentricity0.00675
Inclination66.8753°
RAAN149.8681°
Arg. of periapsis84.7551°
True anomaly275.35365°
Mean anomaly276.1234°
Eccentric anomaly275.73859°
Mean motion3.51897 °/min
BSTAR0.00044268
Orbital period102.3 mins
Loading maneuver chart data...

THOR ABLESTAR DEB Visibility forecast

Observer location: undefined°, undefined

Span
Click to sort rows by Start time (UTC) header in descending order
Start Az.
Max El. time (UTC)
Max El. Az.
Max El.
End time (UTC)
End Az.
9 mins2025-01-14 11:31:22.189Z248.465° W2025-01-14 11:35:22.189Z300.561° NW28.123°2025-01-14 11:40:22.189Z9.996° NNE
8 mins2025-01-14 18:44:22.189Z2.123° NNE2025-01-14 18:47:22.189Z51.675° ENE28.772°2025-01-14 18:52:22.189Z115.611° SE
8 mins2025-01-14 20:29:22.189Z302.603° NW2025-01-14 20:32:22.189Z253.158° W30.768°2025-01-14 20:37:22.189Z185.601° SSW
8 mins2025-01-15 09:40:22.189Z170.524° S2025-01-15 09:43:22.189Z119.426° SE33.823°2025-01-15 09:48:22.189Z44.34° NE
|